Regional Weather Roundup
Issued by NWS

Home | Current Version | Previous Version | Text Only | Print | Product List | Glossary Off
Versions: 1 2 3 4 5 6 7 8 9 10 11 12 13 14 15 16 17 18 19 20 21 22 23 24 25 26 27 28 29 30 31 32 33 34 35 36 37 38 39 40 41 42 43 44 45 46 47 48 49 50

000
ASUS43 KMKX 130611
RWRWI

WISCONSIN REGIONAL WEATHER ROUNDUP
NATIONAL WEATHER SERVICE MILWAUKEE/SULLIVAN WI
100 AM CDT SUN JUL 13 2014

NOTE: "FAIR" INDICATES FEW OR NO CLOUDS BELOW 12,000 FEET WITH NO
SIGNIFICANT WEATHER AND/OR OBSTRUCTIONS TO VISIBILITY.

WIZ001-002-006>008-014>016-023>028-130700-
NORTHWEST WISCONSIN

CITY           SKY/WX    TMP DP  RH WIND       PRES   REMARKS
SUPERIOR ARPT  CLOUDY    61  55  80 W7        29.85F
6HR MIN TEMP:  61; 6HR MAX TEMP:  74;

ASHLAND        PTCLDY    64  60  87 W7        29.86R
6HR MIN TEMP:  63; 6HR MAX TEMP:  72;

HAYWARD        CLEAR     60  59  96 S5        29.87F
6HR MIN TEMP:  60; 6HR MAX TEMP:  73;

SIREN          CLEAR     64  61  90 SW6       29.88F
6HR MIN TEMP:  63; 6HR MAX TEMP:  72;

RICE LAKE      CLEAR     62  60  93 SW3       29.91F
6HR MIN TEMP:  62; 6HR MAX TEMP:  69;

LADYSMITH      CLEAR     65  64  96 SW6       29.91F FOG
6HR MIN TEMP:  65; 6HR MAX TEMP:  67;

EAU CLAIRE     CLEAR     63  63 100 W5        29.89F
6HR MIN TEMP:  63; 6HR MAX TEMP:  68; 6HR PCP: TRACE;

MENOMONIE      CLEAR     64  63  96 SW5       29.91F
6HR MIN TEMP:  64; 6HR MAX TEMP:  70;

NEW RICHMOND   PTCLDY    64  63  98 SW5       29.91F
6HR MIN TEMP:  64; 6HR MAX TEMP:  72;

OSCEOLA        CLEAR     64  63  98 SW5       29.92F
6HR MIN TEMP:  64; 6HR MAX TEMP:  74;

$$

WIZ003>005-009-010-017-018-130700-
NORTH CENTRAL WISCONSIN

CITY           SKY/WX    TMP DP  RH WIND       PRES   REMARKS
WOODRUFF       CLOUDY    64  62  91 W9        29.87F
6HR MIN TEMP:  62; 6HR MAX TEMP:  65;

RHINELANDER    CLOUDY    61  60  97 W10       29.89F
6HR MIN TEMP:  60; 6HR MAX TEMP:  63; 6HR PCP:  0.02;

EAGLE RIVER    MOCLDY    62  62  99 W7        29.86F
6HR MIN TEMP:  62; 6HR MAX TEMP:  64; 6HR PCP:  0.02;

LAND O LAKES   MOCLDY    64  61  91 W6        29.87S
6HR MIN TEMP:  64; 6HR MAX TEMP:  66;

PHILLIPS       CLOUDY    63  62  97 SW7       29.88F
6HR MIN TEMP:  63; 6HR MAX TEMP:  64;

TOMAHAWK       MOCLDY    61  60  96 W6        29.89F
6HR MIN TEMP:  57; 6HR MAX TEMP:  63; 6HR PCP:  0.03;

MEDFORD        CLOUDY    61  60  99 W8        29.90F FOG
6HR MIN TEMP:  60; 6HR MAX TEMP:  64; 6HR PCP:  0.01;

MERRILL        CLOUDY    63  62  98 W9        29.88F
6HR MIN TEMP:  59; 6HR MAX TEMP:  64;

$$

WIZ029-030-035-036-043>047-130700-
CENTRAL WISCONSIN

CITY           SKY/WX    TMP DP  RH WIND       PRES   REMARKS
WAUSAU         CLEAR     63  61  93 NW9       29.87F
6HR MIN TEMP:  61; 6HR MAX TEMP:  68; 6HR PCP:  0.02;

MOSINEE        CLEAR     61  61 100 W10       29.90F
MARSHFIELD     CLEAR     60  59  96 W7        29.90F
6HR MIN TEMP:  60; 6HR MAX TEMP:  66; 6HR PCP: TRACE;

STEVENS POINT  PTCLDY    61  60  97 W6        29.89S
6HR MIN TEMP:  61; 6HR MAX TEMP:  64; 6HR PCP:  0.02;

WAUPACA        CLEAR     65  62  91 SW3       29.86F
6HR MIN TEMP:  65; 6HR MAX TEMP:  73;

WAUTOMA        CLEAR     62  62 100 SW3       29.88F
6HR MIN TEMP:  62; 6HR MAX TEMP:  75; 6HR PCP:  0.08;

WISC RAPIDS    CLOUDY    63  62  97 W8        29.91S
6HR MIN TEMP:  62; 6HR MAX TEMP:  66; 6HR PCP:  0.05;

CAMP DOUGLAS   NOT AVBL
$$

WIZ011>013-019>022-031-037>040-048>050-130700-
NORTHEAST WISCONSIN

CITY           SKY/WX    TMP DP  RH WIND       PRES   REMARKS
ANTIGO         PTCLDY    60  60  98 W15G21    29.88S
6HR MIN TEMP:  58; 6HR MAX TEMP:  62; 6HR PCP:  0.05;

STURGEON BAY   CLEAR     63  59  88 W5        29.83R
6HR MIN TEMP:  63; 6HR MAX TEMP:  70;

GREEN BAY      CLEAR     64  62  93 SW6       29.83F
6HR MIN TEMP:  64; 6HR MAX TEMP:  76; 6HR PCP: TRACE;

MANITOWOC      PTCLDY    64  62  93 NW5       29.84S
6HR MIN TEMP:  64; 6HR MAX TEMP:  72; 6HR PCP:  0.57;

APPLETON       CLEAR     63  63 100 W10       29.86F
CLINTONVILLE   CLEAR     63  61  94 W6        29.84F
OSHKOSH        CLEAR     65  63  93 W5        29.86S
6HR MIN TEMP:  65; 6HR MAX TEMP:  74; 6HR PCP:  0.08;

$$

WIZ032>034-041-042-053>061-130700-
SOUTHWEST WISCONSIN

CITY           SKY/WX    TMP DP  RH WIND       PRES   REMARKS
LA CROSSE      FOG       63  62  97 CALM      29.91F VSB 1/4
6HR MIN TEMP:  63; 6HR MAX TEMP:  70; 6HR PCP: TRACE;

SPARTA         CLOUDY    62  61  97 CALM      29.92S FOG
6HR MIN TEMP:  60; 6HR MAX TEMP:  66; 6HR PCP:  0.01;

VIROQUA        CLOUDY    62  62 100 W6        29.93F VSB 1
6HR MIN TEMP:  62; 6HR MAX TEMP:  66; 6HR PCP:  0.06;

BOSCOBEL       CLOUDY    66  63  90 CALM      29.93F
6HR MIN TEMP:  65; 6HR MAX TEMP:  72; 6HR PCP:  0.13;

PRAIRIE DU CHI MOCLDY    65  63  93 CALM      29.93F
6HR MIN TEMP:  64; 6HR MAX TEMP:  69; 6HR PCP:  0.04;

PLATTEVILLE    FAIR      64  63  96 NW6       29.94F
6HR MIN TEMP:  64; 6HR MAX TEMP:  76; 6HR PCP:  0.12;

$$

WIZ056-057-062-063-064-067-068-130700-
SOUTH CENTRAL WISCONSIN

CITY           SKY/WX    TMP DP  RH WIND       PRES   REMARKS
BARABOO/DELLS  CLOUDY    63  61  94 NW5       29.92S
6HR MIN TEMP:  63; 6HR MAX TEMP:  73; 6HR PCP:  0.18;

LONE ROCK      MOCLDY    69  64  84 W3        29.92F
6HR MIN TEMP:  69; 6HR MAX TEMP:  79; 6HR PCP:  0.97;

WATERTOWN      MOCLDY    65  65  99 W5        29.88S
6HR MIN TEMP:  65; 6HR MAX TEMP:  74; 6HR PCP:  0.02;

MADISON        PTCLDY    66  63  90 NW3       29.90F
6HR MIN TEMP:  66; 6HR MAX TEMP:  75; 6HR PCP:  0.42;

MIDDLETON      FAIR      66  66 100 NW5       29.91F
6HR MIN TEMP:  66; 6HR MAX TEMP:  77; 6HR PCP:  0.19;

MONROE         CLOUDY    66  64  94 NW7       29.91S
JANESVILLE     CLOUDY    68  66  94 N8        29.88S
$$

WIZ051-052-058>065-066-070>072-130700-
SOUTHEAST WISCONSIN

CITY           SKY/WX    TMP DP  RH WIND       PRES   REMARKS
MILWAUKEE      CLOUDY    68  63  84 SW3       29.86F
6HR MIN TEMP:  67; 6HR MAX TEMP:  75; 6HR PCP:  0.98;

WAUKESHA       CLOUDY    64  63  94 W3        29.88S
MILWAUKEE/TIMM MOCLDY    64  61  88 W3        29.86F
RACINE         LGT RAIN  69  68  96 CALM      29.87F
6HR MIN TEMP:  67; 6HR MAX TEMP:  75; 6HR PCP:  1.78;

BURLINGTON     CLOUDY    67  67  98 NW3       29.86F
6HR MIN TEMP:  67; 6HR MAX TEMP:  73; 6HR PCP:  1.52;

KENOSHA        CLOUDY    70  68  93 W6        29.86F
6HR MIN TEMP:  69; 6HR MAX TEMP:  78; 6HR PCP:  1.84;

FOND DU LAC    CLEAR     65  62  90 W7        29.87S
6HR MIN TEMP:  65; 6HR MAX TEMP:  74; 6HR PCP:  0.34;

SHEBOYGAN      PTCLDY    63  62  97 SW6       29.84S
6HR MIN TEMP:  63; 6HR MAX TEMP:  74; 6HR PCP:  0.16;

WEST BEND      PTCLDY    63  59  88 NW6       29.86S
JUNEAU         CLEAR     63  48  58 W6        29.90R HAZE
6HR MIN TEMP:  63; 6HR MAX TEMP:  74; 6HR PCP:  0.65;

$$

LSZ147-162-130700-
LAKE SUPERIOR

STATION/POSITION TIME  TEMP    WIND        PRES    WAVE
                       AIR SEA DIR/SP/G            HT/PER
                 (UTC) (F)     (DEG/KT/KT) (MB)    (FT/S)
W MID LAKE BUOY  0550   48 38  250/ 14/ 14 1008.5S   1
PORT WING        0500   66     290/ 20     1011.2R
SAXON HARBOR     0500          190/  4/ 11 1009.8F
$$

LMZ867-665-643>646-130700-
LAKE MICHIGAN

STATION/POSITION TIME  TEMP    WIND        PRES    WAVE
                       AIR SEA DIR/SP/G            HT/PER
                 (UTC) (F)     (DEG/KT/KT) (MB)    (FT/S)
N MID LAKE BUOY  0550   59 58  200/  4/  6 1008.1F   1/ 3
NORTHPORT PIER   0500   66     280/  3/  7 1008.8F
SISTER BAY       0410   66     320/ 14/ 16   N/A
KEWAUNEE LAKESHO 0500   65     300/  4/  5 1010.9R
SHEBOYGAN LAKESH 0600   67     230/  6/  6 1010.2R
PORT WASHINGTON  0500   64     240/  2/  5 1011.5
MILWAUKEE LAKESH 0500   66     350/  5/  7   N/A
S MID LAKE BUOY  0550   65 58  290/ 14/ 17 1010.3R   3/ 4
KENOSHA   LAKESH 0600   70     300/  6/  9   N/A
$$

TC  - TEMPERATURE IN CELSIUS
VSB - VISIBILITY IN STATUTE MILES
WCI - WIND CHILL INDEX
HX  - HEAT INDEX



USA.gov is the U.S. government's official web portal to all federal, state and local government web resources and services.